RH
41 34 97 100 100 100 98 62 100 100 100 100 100 89 80 76 62 75 88 100 100 100 100 78 85 98 100 100 98 67 64 52 45 41 19 17 16 23 44 87 100 75 71
49 41 100 100 100 100 100 100 100 100 100 100 100 100 86 87 75 78 66 100 99 100 100 100 100 94 100 100 100 100 81 56 46 38 27 21 18 17 18 29 43 81 94
64 42 82 100 100 100 100 100 100 100 100 100 100 100 100 89 78 98 99 73 79 100 100 100 100 99 100 100 100 100 100 80 46 58 38 26 25 20 19 16 18 42 60
78 79 48 100 100 100 100 100 100 100 100 100 100 100 100 100 92 92 65 77 100 79 76 100 100 79 100 100 100 100 100 98 61 81 68 53 36 33 28 21 18 17 17
72 91 76 75 100 100 100 100 100 100 100 100 100 100 100 100 100 99 93 71 98 98 97 57 95 100 100 100 100 100 100 100 79 57 57 80 71 44 40 38 24 21 21
44 86 68 43 45 97 100 100 100 100 100 100 100 100 100 98 99 100 87 90 71 96 91 63 61 68 100 100 100 100 90 100 100 95 67 58 72 60 58 49 42 27 27
82 99 100 100 70 58 96 100 100 100 100 100 100 100 100 100 80 90 91 93 86 97 86 86 68 66 67 87 100 100 100 98 98 100 100 84 73 59 66 58 60 49 34
79 91 84 78 83 86 58 71 100 100 100 100 100 100 100 93 92 98 63 78 76 92 91 91 97 78 62 62 64 83 100 100 100 100 78 80 90 84 62 70 65 68 46
21 30 95 100 80 94 100 80 79 93 100 100 100 100 100 100 90 87 86 66 56 74 92 84 76 76 76 61 65 66 72 81 100 100 100 86 92 99 82 87 75 64 60
27 26 23 22 39 82 99 100 94 72 61 76 100 100 100 100 100 100 83 79 66 57 56 83 100 94 94 84 62 68 72 70 58 79 100 100 99 100 96 86 86 82 80
31 30 27 28 26 24 25 31 66 100 100 71 79 99 100 100 100 100 100 95 90 78 56 68 85 97 93 84 79 79 74 75 66 58 49 60 81 96 98 90 73 81 87
49 46 43 37 36 29 25 24 22 28 64 97 79 84 67 77 100 100 100 100 100 94 78 79 79 89 100 98 78 70 85 74 72 70 70 58 58 91 87 86 81 79 93
45 54 52 47 39 39 36 30 25 25 23 32 52 64 89 93 69 80 100 100 100 100 100 97 78 80 86 100 95 81 79 82 66 69 76 70 60 64 100 95 78 84 97
57 56 64 50 58 55 51 44 40 31 27 26 24 30 39 50 75 78 85 90 87 79 95 100 100 98 85 95 100 87 85 81 88 68 74 67 64 67 68 83 89 78 95
49 65 54 57 62 58 51 48 41 40 37 30 28 25 23 27 35 41 55 73 69 60 61 80 100 100 100 100 100 100 100 98 94 78 69 81 89 72 70 63 60 76 100
58 65 67 54 50 47 49 53 50 44 40 43 36 29 30 27 27 29 33 41 58 70 72 64 50 91 100 100 100 100 100 92 98 100 94 71 87 82 74 75 67 72 97
73 77 77 94 74 67 50 42 38 42 37 41 42 41 33 30 37 35 31 33 36 40 54 87 69 41 75 99 100 100 100 100 98 100 100 100 87 87 95 91 85 73 62
78 82 86 71 64 61 56 52 47 43 36 34 41 40 43 37 31 37 43 42 37 35 39 56 69 68 50 52 57 85 100 100 100 95 100 100 98 98 82 94 90 88 73
86 89 76 70 56 49 45 46 48 48 53 41 32 37 39 38 34 34 32 35 43 41 39 36 51 68 78 74 54 37 50 85 100 100 100 100 100 100 98 79 75 92 85
86 78 67 48 43 40 39 54 55 55 54 49 44 36 32 30 30 29 30 30 31 36 39 36 37 47 71 76 64 62 55 45 44 64 93 100 100 100 100 87 82 70 86
77 63 46 38 44 47 58 68 72 68 57 52 37 31 27 24 25 25 26 27 28 31 32 35 33 36 40 64 86 74 88 76 60 43 60 88 94 100 100 100 97 81 92
44 50 42 38 49 74 84 73 60 59 54 40 32 28 26 23 22 21 21 22 24 24 29 31 30 31 34 37 61 78 85 94 90 74 59 65 69 78 100 100 100 98 90
35 39 43 51 60 100 86 59 51 43 38 32 29 27 24 18 14 11 10 10 11 14 20 25 27 25 29 31 33 59 81 73 92 90 81 75 69 56 61 95 88 92 87
62 54 57 63 90 72 66 52 40 37 33 28 24 17 12 8 8 7 7 7 7 7 9 17 24 24 21 26 30 34 56 86 89 98 85 78 74 59 54 75 90 100 99
78 61 59 92 72 72 48 38 36 33 25 17 11 9 8 8 7 7 6 6 6 6 7 8 13 22 22 20 24 29 34 58 84 94 95 86 73 62 68 74 94 65 88
60 64 80 77 69 51 40 39 31 21 12 10 8 9 9 8 7 6 6 6 6 6 6 6 7 10 21 21 20 25 27 36 58 88 100 94 85 81 70 91 100 100 70
Wind_Speed
56 58 57 50 52 46 47 49 43 41 40 41 41 33 30 35 43 39 38 38 36 34 35 38 34 34 33 34 38 39 34 30 32 26 20 17 14 17 24 30 32 30 29
60 60 63 55 53 61 50 57 52 46 47 43 48 47 41 34 36 37 42 37 42 39 39 34 34 28 36 29 30 41 40 33 32 36 28 22 18 15 17 23 29 32 33
57 62 65 70 62 54 56 58 55 53 55 52 50 53 52 47 44 42 41 43 46 39 43 41 38 33 31 29 29 30 38 34 32 35 32 29 24 20 19 17 19 26 30
54 57 69 73 67 66 59 62 54 55 53 49 53 52 55 60 54 50 45 42 41 48 45 40 40 40 37 34 34 34 38 39 33 33 35 35 32 26 22 20 20 19 20
56 58 65 73 73 70 71 71 64 59 57 59 58 57 56 57 59 61 59 48 48 45 46 53 43 44 44 40 40 36 36 41 39 35 33 37 35 32 28 26 24 22 23
49 58 62 68 76 74 70 76 71 70 69 68 67 67 66 64 63 62 62 59 56 52 54 53 54 52 48 47 47 41 38 38 40 43 42 38 37 37 36 33 32 27 26
51 59 61 61 64 72 75 72 71 76 78 77 77 75 76 75 73 70 68 69 68 65 57 57 54 56 57 55 49 48 49 45 43 42 42 42 41 40 39 39 37 35 31
48 59 62 65 66 68 72 79 81 77 81 82 80 77 77 81 82 82 81 78 76 75 73 67 67 66 62 62 60 55 47 50 49 47 47 46 43 42 41 42 42 39 35
22 27 55 69 66 68 75 77 85 81 81 82 86 83 81 77 83 85 89 91 88 83 80 78 77 74 72 67 64 62 62 51 51 49 49 50 47 42 44 43 43 41 38
25 18 23 36 45 62 74 74 81 84 89 91 87 88 86 87 82 80 88 92 95 95 92 80 74 73 75 71 72 68 66 66 62 50 46 51 52 49 47 46 44 45 43
25 24 24 23 23 35 48 55 70 89 90 93 94 92 91 92 93 94 90 88 94 95 97 94 86 84 83 77 75 73 70 69 67 66 67 57 52 51 51 51 50 46 47
32 34 32 31 34 36 38 41 60 63 77 89 96 101 101 103 97 96 98 95 82 93 98 98 94 89 85 84 86 80 76 75 73 65 65 63 58 54 54 55 53 50 48
40 39 41 44 46 42 44 46 44 60 72 73 84 95 102 112 112 106 103 102 104 98 89 95 101 100 93 87 89 86 79 77 75 71 66 64 62 58 56 57 54 52 50
44 47 49 53 50 52 54 54 56 51 60 78 86 87 92 99 112 113 117 115 112 111 111 98 93 102 101 98 89 89 90 87 85 79 71 66 67 66 66 62 60 57 56
52 53 55 58 57 60 62 59 59 59 62 60 80 89 94 96 100 104 109 116 123 118 118 117 110 102 100 100 97 93 90 87 87 83 77 72 70 68 68 66 65 61 60
57 57 60 63 66 67 69 68 69 69 69 68 67 73 93 96 102 107 108 111 114 116 123 124 123 120 114 108 106 101 97 93 93 91 86 80 71 71 68 66 67 65 61
62 64 65 67 69 71 72 77 78 77 77 77 78 79 77 87 102 104 109 114 117 117 118 124 127 129 128 122 118 110 106 101 97 98 89 90 88 81 77 76 70 67 66
70 71 74 74 74 76 76 78 76 81 84 84 84 86 89 89 90 103 108 111 114 122 124 122 126 129 127 129 129 125 115 110 103 101 100 94 90 88 86 82 79 74 75
78 79 80 80 81 79 81 82 81 82 86 91 92 94 97 98 99 102 107 116 116 120 125 130 128 129 132 134 132 130 129 126 121 113 102 99 93 94 93 90 86 80 79
83 85 85 83 83 84 81 80 89 92 94 100 100 101 104 108 110 110 112 115 120 127 128 133 135 134 131 134 136 137 131 130 129 126 119 116 107 98 98 92 88 84 81
90 89 86 82 85 85 90 93 95 97 102 105 109 111 114 114 111 110 114 118 121 125 137 137 140 142 138 135 135 139 137 135 133 131 130 125 119 111 100 94 94 90 89
86 88 87 92 96 94 100 104 100 100 103 108 112 117 114 111 110 109 112 116 122 125 132 143 145 146 147 144 138 139 139 137 137 133 132 129 127 123 114 108 104 100 94
86 87 94 97 96 97 110 106 103 103 106 110 113 112 110 106 103 102 104 107 113 121 130 139 149 151 149 151 146 141 140 140 138 133 131 132 128 128 125 120 113 104 103
99 101 96 96 100 109 112 107 104 104 107 109 107 103 102 100 99 99 99 102 106 113 121 132 141 152 154 154 154 149 144 140 141 138 134 132 134 131 126 119 109 109 105
105 102 99 102 110 113 109 105 105 106 105 101 100 97 96 97 96 96 97 100 104 108 114 123 132 143 153 155 156 157 151 145 145 141 139 134 133 133 127 122 124 115 112
104 100 104 110 113 111 106 104 104 102 99 97 95 93 93 92 92 93 94 97 101 105 110 116 124 132 143 152 157 159 158 154 149 146 140 138 129 131 132 123 120 115 114
Wind_Direction
216 216 209 207 209 215 212 215 219 221 220 225 227 226 228 228 227 232 241 247 247 251 254 253 258 257 263 263 259 259 255 254 252 248 236 227 220 221 225 223 228 231 233
214 215 208 206 214 215 217 214 221 226 224 225 227 227 228 236 239 241 239 243 243 251 252 251 250 255 254 256 263 254 252 249 252 249 241 238 229 225 225 229 232 232 235
225 214 211 210 209 213 221 219 229 227 232 224 230 231 231 232 235 241 244 246 241 248 253 247 245 245 244 248 248 254 243 248 248 250 242 238 237 231 233 225 228 232 232
228 219 215 213 214 213 221 224 226 230 239 237 233 231 236 236 233 239 239 243 240 239 239 243 241 239 241 239 242 246 249 246 244 246 246 246 244 239 238 236 231 230 232
228 228 221 217 220 221 220 218 221 221 230 245 246 247 245 239 237 238 237 241 242 241 242 243 240 235 237 237 239 241 253 248 245 243 245 248 247 244 241 244 241 239 246
238 233 235 233 225 229 231 228 223 227 233 238 248 251 251 247 247 245 241 242 241 242 244 246 246 243 239 236 237 234 242 250 253 251 247 247 248 249 247 245 246 242 245
238 232 232 235 239 233 234 238 231 232 234 235 242 249 248 249 248 248 245 245 242 245 245 245 247 249 245 242 239 242 241 241 246 247 250 248 250 248 247 248 247 247 247
249 246 243 243 242 238 238 239 240 237 233 239 242 244 251 250 248 251 246 246 243 248 245 242 247 251 249 246 242 239 247 245 244 244 247 249 247 247 245 244 244 244 243
256 255 253 250 251 241 247 246 241 240 241 244 242 243 246 247 250 248 249 249 246 247 251 249 249 249 249 246 247 241 241 242 244 244 246 247 247 249 247 243 242 240 240
334 308 279 254 253 253 254 248 247 248 248 245 245 245 246 244 243 251 251 249 249 251 250 247 251 247 244 248 249 247 244 242 240 240 250 245 248 248 247 247 245 245 245
327 324 309 299 281 274 262 259 256 249 246 248 245 247 249 248 247 248 251 253 253 252 249 250 250 247 246 246 245 249 246 242 243 243 243 241 243 247 246 247 248 246 243
315 317 316 316 310 299 285 279 262 258 254 250 246 247 248 248 248 249 248 244 245 252 252 251 250 248 247 248 247 248 245 244 239 240 239 239 238 241 247 248 247 247 249
316 313 311 307 303 304 301 297 286 261 256 255 256 258 252 245 247 247 249 243 246 242 246 251 251 250 247 249 247 246 244 242 243 237 237 239 238 237 240 244 244 246 249
309 309 307 304 306 303 301 298 292 287 265 255 252 253 254 254 249 247 250 247 244 245 243 239 241 248 249 247 244 246 245 248 244 242 237 237 241 243 241 239 241 244 248
306 301 303 302 301 297 296 294 289 284 283 272 256 252 251 252 253 252 252 248 246 247 245 243 238 236 239 242 244 241 241 240 241 239 237 237 241 243 239 240 243 241 244
301 297 297 296 296 295 295 292 290 287 284 281 276 265 252 251 251 250 250 249 249 248 244 244 242 240 237 238 240 241 239 240 239 240 241 237 236 239 239 241 242 241 241
299 297 295 291 292 291 290 290 289 285 282 281 279 274 268 259 249 250 249 248 248 247 246 243 242 241 239 239 240 238 237 238 236 237 239 240 239 235 240 244 245 243 244
297 296 293 292 291 289 287 285 282 282 282 279 276 273 270 266 258 251 249 246 246 245 244 243 242 240 239 241 241 241 238 236 234 237 236 238 239 238 240 243 246 245 245
297 295 294 292 290 288 288 286 285 283 279 277 274 272 269 266 262 257 251 249 246 243 243 242 240 240 240 240 240 240 240 238 240 237 236 235 240 241 241 241 243 244 244
295 293 293 293 293 294 291 288 288 287 283 282 278 272 270 268 264 260 254 248 246 243 242 240 239 239 238 238 237 239 239 240 240 241 240 239 239 239 240 241 241 244 244
293 293 295 299 296 301 299 300 294 289 285 283 278 276 274 272 266 261 255 251 247 243 240 239 238 237 236 236 236 235 237 239 240 239 239 239 241 240 236 239 244 245 245
301 298 300 302 303 302 303 302 295 290 287 282 280 280 278 274 269 263 257 252 248 245 241 238 237 236 235 235 234 235 234 235 237 238 238 239 238 239 240 241 243 245 245
306 306 305 307 304 300 301 301 296 289 285 283 282 280 278 274 269 264 258 253 248 244 242 239 237 235 234 234 233 232 233 233 234 234 237 238 238 239 240 240 242 242 243
309 310 307 308 303 305 306 301 294 290 288 286 284 281 278 274 270 265 260 255 249 245 242 239 236 236 233 232 232 231 231 232 232 232 233 235 237 238 240 240 240 233 239
309 309 307 304 307 307 303 298 295 292 290 288 285 282 279 275 271 266 261 255 250 245 241 239 237 235 234 232 230 230 229 229 231 230 231 231 235 236 237 237 237 240 238
309 307 305 308 310 308 303 301 298 296 294 291 288 285 282 277 272 267 261 256 251 247 242 239 237 235 234 233 231 229 229 228 228 230 230 231 230 233 235 232 232 232 236